Showing default

YAOGAN-32 A, 43642

Orbit data source: Space-Track

YAOGAN-32 A, 43642 is a payload satellite owned by PLA SSF (CN) in SSO that was launched on Tue, 09 Oct 2018 UTC via a CHANG ZHENG 2C/YZ-1S launch vehicle from the Jiuquan Satellite Launch Center, China (JSC). Payload-class satellites include a variety of spacecraft equipped with specific instruments for various scientific and technological missions. These include communications satellites like Starlink; space stations such as the ISS; scientific satellites like the Hubble; Earth observation satellites from companies like Planet Labs, Umbra, and HawkEye 360; GPS; miniature CubeSats for education and research; and military/defense satellites.

Loading next visibility...
Identifier
43642, 2018-077A
Orbit
SSO
Country
Flag of CNCN / PRC
Related business
Manufacturer
SECM?
Mission
Operational Defense Sigint
Bus & Motor
Unknown
Mass
~500 kg wet, ~500 kg dry
Launch date (UTC)
2018-10-09 (8 years ago)
Launch vehicle
CHANG ZHENG 2C/YZ-1S
Launch site
Jiuquan Satellite Launch Center, China (JSC)
Object type
Payload
Rocket body
Debris
Shape & HBR
Box + 2 Pan, 0.5 m
Radar Cross Section
0.446 m², Large (>1 m²)

Expand to show TLE details & history
Last TLE update: 23 hours ago

TLE from 23 hours ago
0 YAOGAN-32 A
1 43642U 18077A   26172.50015484  .00000635  00000-0  13253-3 0  9998
2 43642  98.1470 200.9933 0001699  99.5751 260.5643 14.63179489410471
Epoch: 2026-06-21T12:00Z
TLE epoch observation values (Epoch: 2026-06-21T12:00:13.378Z)
Latitude
-0.00001°
Longitude
111.23802°
Altitude
686.114 km
Speed
7.513 km/s
True Right ascension
13h 23m 58s
True Declination
0° 00' 00"
Sunlit
Object was in daylight at epoch
Visualization orbit readout
Latitude
Unknown
Longitude
Unknown
Altitude
Unknown
Speed
Unknown
Apparent Right ascension
Unknown
Apparent Declination
Unknown
Sunlit
N/A
Visualization observer readout
Local Sidereal Time
21:40:46
Azimuth
Unknown
Elevation
Unknown
Doppler factor
Unknown
Orbital elements
Apogee altitude
681.2 km
Perigee altitude
678.802 km
Semi-major axis
7,058.138 km
Eccentricity
0.00017
Inclination
98.147°
RAAN
200.9933°
Arg. of periapsis
99.5751°
True anomaly
260.54509°
Mean anomaly
260.5643°
Eccentric anomaly
260.5547°
Mean motion
3.66023 °/min
Orbital period
98.35 mins
BSTAR
0.00013253
Loading maneuver chart data...
Computing Atmospheric mass density...
Loading historical data...
Loading historical data...
Loading historical data...
Loading historical data...
Loading historical data...
Loading historical data...
Loading historical data...
Other satellites on launch #77 in the year 2018 (2018-10-09 UTC)

Documentation

Showing up to 5 results
|